Location: Boley
(53.1150°N, 8.2269°W)
Time: 02:32:25
(UTC+00:00)

Cosmos 1536 - Pass Details

Date: 15 May 2026
Orbit: 482 x 500 km, 82.5° (Epoch: 8 June)

Event Time Altitude Azimuth Distance (km) Brightness Sun altitude
Rises 23:04:21 0° 347° (NNW) 2,571 8.0 -15.5°
Reaches altitude 10° 23:06:27 10° 346° (NNW) 1,688 6.7 -15.6°
Maximum altitude 23:10:08 74° 261° (W) 517 2.6 -15.8°
Enters shadow 23:11:43 32° 183° (S) 861 3.3 -15.9°
